When you browse on this site, cookies collect data to enhance your experience and personalize the content and advertising you see.
Visit our Privacy Policy to learn more. By continuing to use the site, you agree to this use of cookies and data.
  • en Suisse
  • Liste des pays
  • À 7 jours
  • Température de l'eau
  • Carte satellitaire
  • Carte météo
  • Widgets météo
  • user-avatar
    Se connecter

    Météo par heure à Wadzhir

    Ce jour, 23 Janvier, Mercredi

    Heure Température Précipitation Vent Pression Humidité
    00:00 +33°C° 0 mm 9 m/s 735 mmHg 42%
    01:00 +32°C° 0 mm 8 m/s 735 mmHg 47%
    02:00 +31°C° 0 mm 8 m/s 735 mmHg 53%
    03:00 +28°C° 0 mm 7 m/s 736 mmHg 60%
    04:00 +28°C° 0 mm 7 m/s 736 mmHg 62%
    05:00 +27°C° 0 mm 6 m/s 736 mmHg 64%
    06:00 +27°C° 0 mm 6 m/s 737 mmHg 67%
    07:00 +27°C° 0 mm 5 m/s 737 mmHg 63%
    08:00 +28°C° 0 mm 5 m/s 737 mmHg 60%
    09:00 +29°C° 0 mm 4 m/s 738 mmHg 56%
    10:00 +30°C° 0 mm 4 m/s 738 mmHg 50%
    11:00 +33°C° 0 mm 4 m/s 737 mmHg 43%
    12:00 +34°C° 0 mm 3 m/s 737 mmHg 37%
    13:00 +36°C° 0 mm 3 m/s 736 mmHg 33%
    14:00 +37°C° 0 mm 3 m/s 736 mmHg 29%
    15:00 +38°C° 0 mm 3 m/s 735 mmHg 25%
    16:00 +38°C° 0 mm 3 m/s 735 mmHg 23%
    17:00 +39°C° 0 mm 3 m/s 734 mmHg 22%
    18:00 +39°C° 0 mm 3 m/s 734 mmHg 20%
    19:00 +38°C° 0 mm 3 m/s 734 mmHg 21%
    20:00 +37°C° 0 mm 3 m/s 735 mmHg 22%
    21:00 +36°C° 0 mm 3 m/s 735 mmHg 23%
    22:00 +36°C° 0 mm 4 m/s 735 mmHg 24%
    23:00 +35°C° 0 mm 4 m/s 736 mmHg 26%

    Demain, 24 Janvier, Jeudi

    Heure Température Précipitation Vent Pression Humidité
    00:00 +34°C° 0 mm 4 m/s 736 mmHg 27%
    01:00 +33°C° 0 mm 5 m/s 736 mmHg 39%
    02:00 +30°C° 0 mm 6 m/s 736 mmHg 51%
    03:00 +28°C° 0 mm 6 m/s 736 mmHg 63%
    04:00 +28°C° 0 mm 6 m/s 736 mmHg 64%
    05:00 +28°C° 0 mm 6 m/s 737 mmHg 64%
    06:00 +27°C° 0 mm 5 m/s 737 mmHg 64%
    07:00 +28°C° 0 mm 5 m/s 738 mmHg 62%
    08:00 +29°C° 0 mm 5 m/s 738 mmHg 59%
    09:00 +29°C° 0 mm 5 m/s 739 mmHg 56%
    10:00 +32°C° 0 mm 5 m/s 738 mmHg 50%
    11:00 +33°C° 0 mm 4 m/s 738 mmHg 43%
    12:00 +35°C° 0 mm 4 m/s 738 mmHg 37%
    13:00 +36°C° 0 mm 4 m/s 737 mmHg 33%
    14:00 +37°C° 0 mm 3 m/s 736 mmHg 28%
    15:00 +38°C° 0 mm 3 m/s 735 mmHg 24%
    16:00 +39°C° 0 mm 3 m/s 735 mmHg 23%
    17:00 +40°C° 0 mm 4 m/s 734 mmHg 22%
    18:00 +40°C° 0 mm 4 m/s 734 mmHg 20%
    19:00 +38°C° 0 mm 3 m/s 734 mmHg 21%
    20:00 +38°C° 0 mm 3 m/s 735 mmHg 22%
    21:00 +37°C° 0 mm 3 m/s 735 mmHg 23%
    22:00 +36°C° 0 mm 3 m/s 735 mmHg 24%
    23:00 +35°C° 0 mm 3 m/s 736 mmHg 25%

    Après-demain, 25 Janvier, Vendredi

    Heure Température Précipitation Vent Pression Humidité
    00:00 +35°C° 0 mm 4 m/s 736 mmHg 26%
    01:00 +33°C° 0 mm 4 m/s 736 mmHg 38%
    02:00 +30°C° 0 mm 5 m/s 735 mmHg 51%
    03:00 +29°C° 0 mm 6 m/s 735 mmHg 63%
    04:00 +28°C° 0 mm 6 m/s 735 mmHg 64%
    05:00 +28°C° 0 mm 5 m/s 736 mmHg 65%
    06:00 +27°C° 0 mm 5 m/s 736 mmHg 65%
    07:00 +28°C° 0 mm 5 m/s 737 mmHg 63%
    08:00 +29°C° 0 mm 5 m/s 738 mmHg 60%
    09:00 +30°C° 0 mm 5 m/s 738 mmHg 58%
    10:00 +32°C° 0 mm 5 m/s 738 mmHg 50%
    11:00 +34°C° 0 mm 4 m/s 738 mmHg 42%
    12:00 +36°C° 0 mm 4 m/s 737 mmHg 34%
    13:00 +37°C° 0 mm 4 m/s 736 mmHg 30%
    14:00 +38°C° 0 mm 4 m/s 735 mmHg 26%
    15:00 +40°C° 0 mm 4 m/s 734 mmHg 22%
    16:00 +40°C° 0 mm 4 m/s 734 mmHg 21%
    17:00 +40°C° 0 mm 4 m/s 734 mmHg 20%
    18:00 +41°C° 0 mm 4 m/s 734 mmHg 19%
    19:00 +39°C° 0 mm 3 m/s 735 mmHg 20%
    20:00 +38°C° 0 mm 3 m/s 735 mmHg 20%
    21:00 +37°C° 0 mm 3 m/s 736 mmHg 21%
    22:00 +36°C° 0 mm 4 m/s 736 mmHg 28%
    23:00 +35°C° 0 mm 6 m/s 736 mmHg 34%

    26 Janvier, Samedi

    Heure Température Précipitation Vent Pression Humidité
    00:00 +33°C° 0 mm 7 m/s 736 mmHg 41%
    01:00 +32°C° 0 mm 7 m/s 736 mmHg 49%
    02:00 +29°C° 0 mm 7 m/s 735 mmHg 57%
    03:00 +28°C° 0 mm 7 m/s 735 mmHg 65%
    04:00 +28°C° 0 mm 7 m/s 736 mmHg 67%
    05:00 +27°C° 0 mm 6 m/s 736 mmHg 69%
    06:00 +27°C° 0 mm 6 m/s 736 mmHg 70%
    07:00 +27°C° 0 mm 6 m/s 737 mmHg 67%
    08:00 +28°C° 0 mm 6 m/s 738 mmHg 63%
    09:00 +29°C° 0 mm 6 m/s 739 mmHg 59%
    10:00 +32°C° 0 mm 6 m/s 738 mmHg 51%
    11:00 +34°C° 0 mm 6 m/s 738 mmHg 43%
    12:00 +35°C° 0 mm 5 m/s 738 mmHg 36%
    13:00 +36°C° 0 mm 5 m/s 737 mmHg 32%
    14:00 +37°C° 0 mm 5 m/s 736 mmHg 28%
    15:00 +38°C° 0 mm 4 m/s 735 mmHg 25%
    16:00 +40°C° 0 mm 4 m/s 735 mmHg 24%
    17:00 +40°C° 0 mm 4 m/s 735 mmHg 22%
    18:00 +40°C° 0 mm 4 m/s 735 mmHg 21%
    19:00 +38°C° 0 mm 4 m/s 735 mmHg 22%
    20:00 +37°C° 0 mm 3 m/s 736 mmHg 23%
    21:00 +37°C° 0 mm 3 m/s 736 mmHg 24%
    22:00 +36°C° 0 mm 3 m/s 736 mmHg 25%
    23:00 +35°C° 0 mm 3 m/s 736 mmHg 27%

    27 Janvier, Dimanche

    Heure Température Précipitation Vent Pression Humidité
    00:00 +35°C° 0 mm 3 m/s 737 mmHg 28%
    01:00 +33°C° 0 mm 4 m/s 736 mmHg 37%
    02:00 +32°C° 0 mm 6 m/s 736 mmHg 46%
    03:00 +29°C° 0 mm 7 m/s 735 mmHg 54%
    04:00 +29°C° 0 mm 7 m/s 736 mmHg 58%
    05:00 +28°C° 0 mm 7 m/s 736 mmHg 61%
    06:00 +28°C° 0 mm 6 m/s 737 mmHg 64%
    07:00 +28°C° 0 mm 6 m/s 738 mmHg 61%
    08:00 +29°C° 0 mm 6 m/s 738 mmHg 58%
    09:00 +30°C° 0 mm 6 m/s 739 mmHg 54%
    10:00 +33°C° 0 mm 6 m/s 739 mmHg 47%
    11:00 +34°C° 0 mm 6 m/s 738 mmHg 40%
    12:00 +36°C° 0 mm 5 m/s 737 mmHg 33%
    13:00 +37°C° 0 mm 5 m/s 736 mmHg 30%
    14:00 +39°C° 0 mm 5 m/s 736 mmHg 27%
    15:00 +40°C° 0 mm 4 m/s 735 mmHg 23%
    16:00 +40°C° 0 mm 5 m/s 734 mmHg 22%
    17:00 +40°C° 0 mm 5 m/s 734 mmHg 21%
    18:00 +40°C° 0 mm 5 m/s 734 mmHg 20%
    19:00 +39°C° 0 mm 5 m/s 735 mmHg 21%
    20:00 +39°C° 0 mm 5 m/s 735 mmHg 22%
    21:00 +37°C° 0 mm 5 m/s 736 mmHg 22%
    22:00 +36°C° 0 mm 6 m/s 736 mmHg 23%
    23:00 +35°C° 0 mm 6 m/s 736 mmHg 24%

    28 Janvier, Lundi

    Heure Température Précipitation Vent Pression Humidité
    00:00 +35°C° 0 mm 7 m/s 737 mmHg 25%
    01:00 +34°C° 0 mm 6 m/s 736 mmHg 25%
    02:00 +33°C° 0 mm 6 m/s 736 mmHg 26%
    03:00 +33°C° 0 mm 6 m/s 736 mmHg 27%
    04:00 +32°C° 0 mm 5 m/s 736 mmHg 32%
    05:00 +30°C° 0 mm 5 m/s 737 mmHg 37%
    06:00 +29°C° 0 mm 5 m/s 737 mmHg 42%
    07:00 +29°C° 0 mm 6 m/s 738 mmHg 42%
    08:00 +30°C° 0 mm 7 m/s 738 mmHg 42%
    09:00 +32°C° 0 mm 7 m/s 739 mmHg 42%
    10:00 +33°C° 0 mm 7 m/s 739 mmHg 36%
    11:00 +35°C° 0 mm 7 m/s 738 mmHg 29%
    12:00 +38°C° 0 mm 7 m/s 738 mmHg 23%
    13:00 +39°C° 0 mm 6 m/s 737 mmHg 21%
    14:00 +40°C° 0 mm 6 m/s 736 mmHg 19%
    15:00 +41°C° 0 mm 6 m/s 735 mmHg 17%
    16:00 +40°C° 0 mm 6 m/s 735 mmHg 17%
    17:00 +40°C° 0 mm 6 m/s 734 mmHg 17%
    18:00 +40°C° 0 mm 6 m/s 734 mmHg 17%
    19:00 +39°C° 0 mm 6 m/s 735 mmHg 18%
    20:00 +37°C° 0 mm 5 m/s 735 mmHg 19%
    21:00 +36°C° 0 mm 5 m/s 736 mmHg 20%
    22:00 +35°C° 0 mm 5 m/s 736 mmHg 21%
    23:00 +35°C° 0 mm 5 m/s 736 mmHg 22%
    Voir plus